Powrót do katalogu

COSMOS 2517

GEO-IK

AktywnyNaukaSSO
NORAD 41579·PAYLOAD·🇷🇺 Russia

Wystrzelony Jun 4, 2016 z Plesetsk Cosmodrome

Loading…

Następne Przeloty (najbliższe 24 godziny)

TLE

ŚwieżeSource: Space-Track

Epoka: Sep 14, 2026, 14:11 UTC

1 41579U 16034A   26257.59111216 -.00000027  00000-0  14648-4 0  9995
2 41579  99.1923 264.6927 0001133  85.7566 274.3720 13.85910356520016

Śledź COSMOS 2517 w czasie rzeczywistym z AllMySat

Download on the App Store